Tracking 29892 objects as of 21-Nov-2024
HD Live streaming from Space Station
objects crossing your sky now

STARLINK-30840

Track STARLINK-30840 now!
10-day predictions
STARLINK-30840 is classified as:


NORAD ID: 58223
Int'l Code: 2023-170T
Perigee: 565.1 km
Apogee: 567.2 km
Inclination: 43.0 °
Period: 95.8 minutes
Semi major axis: 6937 km
RCS: Unknown
Launch date: November 3, 2023
Source: United States (US)
Launch site: AIR FORCE EASTERN TEST RANGE (AFETR)
Your satellite tracking list
Your tracking list is empty




NASA's NSSDC Master Catalog

Two Line Element Set (TLE):
1 58223U 23170T   24325.88581956  .00004325  00000-0  33476-3 0  9999
2 58223  43.0050 250.7099 0001520 256.2426 103.8247 15.02569951 59003
Source of the keplerian elements: AFSPC